Time,TemperatureF,DewpointF,PressureIn,WindDirection,WindDirectionDegrees,WindSpeedMPH,WindSpeedGustMPH,Humidity,HourlyPrecipIn,Conditions,Clouds,dailyrainin,SoftwareType,DateUTC
2013-09-12 00:01:00,63.0,59.4,29.98,WNW,286,0.0,0.0,88,0.00,,,0.00,WeatherTracker,2013-09-12 07:01:00,
2013-09-12 00:06:00,63.0,59.4,29.98,WNW,286,0.0,0.0,88,0.00,,,0.00,WeatherTracker,2013-09-12 07:06:00,
2013-09-12 00:11:00,63.1,59.5,29.98,WNW,286,2.0,0.0,88,0.00,,,0.00,WeatherTracker,2013-09-12 07:11:00,
2013-09-12 00:16:00,63.1,59.5,29.98,WNW,286,0.0,0.0,88,0.00,,,0.00,WeatherTracker,2013-09-12 07:16:00,
2013-09-12 00:21:00,63.1,59.5,29.98,WSW,253,0.0,0.0,88,0.00,,,0.00,WeatherTracker,2013-09-12 07:21:00,
2013-09-12 00:26:00,63.1,59.5,29.98,WSW,241,0.0,0.0,88,0.00,,,0.00,WeatherTracker,2013-09-12 07:26:00,
2013-09-12 00:31:00,63.1,59.5,29.98,WSW,241,3.0,0.0,88,0.00,,,0.00,WeatherTracker,2013-09-12 07:31:00,
2013-09-12 00:36:00,63.1,59.5,29.98,WSW,241,0.0,0.0,88,0.00,,,0.00,WeatherTracker,2013-09-12 07:36:00,
2013-09-12 00:41:00,63.1,59.5,29.98,WSW,241,0.0,0.0,88,0.00,,,0.00,WeatherTracker,2013-09-12 07:41:00,
2013-09-12 00:46:00,63.1,59.2,29.98,WSW,241,0.0,0.0,87,0.00,,,0.00,WeatherTracker,2013-09-12 07:46:00,
2013-09-12 00:51:00,63.1,59.2,29.98,WSW,241,0.0,0.0,87,0.00,,,0.00,WeatherTracker,2013-09-12 07:51:00,
2013-09-12 00:56:00,63.1,59.2,29.98,WSW,242,1.0,0.0,87,0.00,,,0.00,WeatherTracker,2013-09-12 07:56:00,
2013-09-12 01:01:00,63.1,59.2,29.98,WSW,241,0.0,0.0,87,0.00,,,0.00,WeatherTracker,2013-09-12 08:01:00,
2013-09-12 01:06:00,63.2,59.3,29.98,WSW,242,0.0,0.0,87,0.00,,,0.00,WeatherTracker,2013-09-12 08:06:00,
2013-09-12 01:11:00,63.2,59.3,29.98,WSW,242,0.0,0.0,87,0.00,,,0.00,WeatherTracker,2013-09-12 08:11:00,
2013-09-12 01:16:00,63.2,59.6,29.98,WSW,242,0.0,0.0,88,0.00,,,0.00,WeatherTracker,2013-09-12 08:16:00,
2013-09-12 01:21:00,63.2,59.6,29.98,WSW,242,0.0,0.0,88,0.00,,,0.00,WeatherTracker,2013-09-12 08:21:00,
2013-09-12 01:26:00,63.2,59.6,29.98,WSW,242,0.0,0.0,88,0.00,,,0.00,WeatherTracker,2013-09-12 08:26:00,
2013-09-12 01:31:00,63.2,59.6,29.98,WSW,242,0.0,0.0,88,0.00,,,0.00,WeatherTracker,2013-09-12 08:31:00,
2013-09-12 01:37:00,63.2,59.6,29.98,WSW,242,0.0,0.0,88,0.00,,,0.00,WeatherTracker,2013-09-12 08:37:00,
2013-09-12 01:42:00,63.1,59.8,29.98,WSW,242,0.0,0.0,89,0.00,,,0.00,WeatherTracker,2013-09-12 08:42:00,
2013-09-12 01:47:00,63.1,59.8,29.98,WSW,241,0.0,0.0,89,0.00,,,0.00,WeatherTracker,2013-09-12 08:47:00,
2013-09-12 01:52:00,63.0,59.7,29.98,WSW,241,0.0,0.0,89,0.00,,,0.00,WeatherTracker,2013-09-12 08:52:00,
2013-09-12 01:57:00,63.0,59.7,29.98,WSW,241,0.0,0.0,89,0.00,,,0.00,WeatherTracker,2013-09-12 08:57:00,
2013-09-12 02:02:00,62.9,59.6,29.98,WSW,242,0.0,0.0,89,0.00,,,0.00,WeatherTracker,2013-09-12 09:02:00,
2013-09-12 02:07:00,62.9,59.6,29.98,WSW,241,0.0,0.0,89,0.00,,,0.00,WeatherTracker,2013-09-12 09:07:00,
2013-09-12 02:12:00,62.8,59.5,29.98,WSW,242,0.0,0.0,89,0.00,,,0.00,WeatherTracker,2013-09-12 09:12:00,
2013-09-12 02:17:00,62.7,59.4,29.98,WSW,242,0.0,0.0,89,0.00,,,0.00,WeatherTracker,2013-09-12 09:17:00,
2013-09-12 02:22:00,62.7,59.4,29.98,WSW,242,0.0,0.0,89,0.00,,,0.00,WeatherTracker,2013-09-12 09:22:00,
2013-09-12 02:27:00,62.7,59.7,29.97,WSW,242,0.0,0.0,90,0.00,,,0.00,WeatherTracker,2013-09-12 09:27:00,
2013-09-12 02:32:00,62.8,59.8,29.97,WSW,242,0.0,0.0,90,0.00,,,0.00,WeatherTracker,2013-09-12 09:32:00,
2013-09-12 02:37:00,62.7,59.7,29.97,WSW,241,0.0,0.0,90,0.00,,,0.00,WeatherTracker,2013-09-12 09:37:00,
2013-09-12 02:42:00,62.7,59.7,29.98,WSW,242,1.0,0.0,90,0.00,,,0.00,WeatherTracker,2013-09-12 09:42:00,
2013-09-12 02:47:00,62.6,59.6,29.97,WSW,242,0.0,0.0,90,0.00,,,0.00,WeatherTracker,2013-09-12 09:47:00,
2013-09-12 02:52:00,62.6,59.6,29.97,WSW,242,0.0,0.0,90,0.00,,,0.00,WeatherTracker,2013-09-12 09:52:00,
2013-09-12 02:57:00,62.5,59.5,29.97,WSW,241,0.0,0.0,90,0.00,,,0.00,WeatherTracker,2013-09-12 09:57:00,
2013-09-12 03:02:00,62.5,59.5,29.97,WSW,241,0.0,0.0,90,0.00,,,0.00,WeatherTracker,2013-09-12 10:02:00,
2013-09-12 03:08:00,62.4,59.4,29.97,WSW,242,0.0,0.0,90,0.00,,,0.00,WeatherTracker,2013-09-12 10:08:00,
2013-09-12 03:13:00,62.4,59.7,29.97,WSW,242,0.0,0.0,91,0.00,,,0.00,WeatherTracker,2013-09-12 10:13:00,
2013-09-12 03:18:00,62.4,59.7,29.97,WSW,242,0.0,0.0,91,0.00,,,0.00,WeatherTracker,2013-09-12 10:18:00,
2013-09-12 03:23:00,62.4,59.7,29.97,WSW,241,0.0,0.0,91,0.00,,,0.00,WeatherTracker,2013-09-12 10:23:00,
2013-09-12 03:28:00,62.4,59.7,29.97,WSW,242,0.0,0.0,91,0.00,,,0.00,WeatherTracker,2013-09-12 10:28:00,
2013-09-12 03:33:00,62.4,59.7,29.97,WSW,242,0.0,0.0,91,0.00,,,0.00,WeatherTracker,2013-09-12 10:33:00,
2013-09-12 03:38:00,62.3,59.6,29.97,WSW,241,0.0,0.0,91,0.00,,,0.00,WeatherTracker,2013-09-12 10:38:00,
2013-09-12 03:43:00,62.3,59.6,29.97,WSW,241,0.0,0.0,91,0.00,,,0.00,WeatherTracker,2013-09-12 10:43:00,
2013-09-12 03:48:00,62.3,59.9,29.97,WSW,241,0.0,0.0,92,0.00,,,0.00,WeatherTracker,2013-09-12 10:48:00,
2013-09-12 03:53:00,62.3,59.9,29.97,WSW,241,0.0,0.0,92,0.00,,,0.00,WeatherTracker,2013-09-12 10:53:00,
2013-09-12 03:58:00,62.3,59.9,29.96,WSW,242,0.0,0.0,92,0.00,,,0.00,WeatherTracker,2013-09-12 10:58:00,
2013-09-12 04:03:00,62.2,59.8,29.97,WSW,242,0.0,0.0,92,0.00,,,0.00,WeatherTracker,2013-09-12 11:03:00,
2013-09-12 04:08:00,62.2,59.8,29.97,WSW,241,0.0,0.0,92,0.00,,,0.00,WeatherTracker,2013-09-12 11:08:00,
2013-09-12 04:13:00,62.2,59.8,29.97,WSW,242,0.0,0.0,92,0.00,,,0.00,WeatherTracker,2013-09-12 11:13:00,
2013-09-12 04:18:00,62.1,59.7,29.96,WSW,242,0.0,0.0,92,0.00,,,0.00,WeatherTracker,2013-09-12 11:18:00,
2013-09-12 04:23:00,62.1,59.7,29.97,WSW,242,0.0,0.0,92,0.00,,,0.00,WeatherTracker,2013-09-12 11:23:00,
2013-09-12 04:28:00,62.1,59.7,29.96,WSW,241,0.0,0.0,92,0.00,,,0.00,WeatherTracker,2013-09-12 11:28:00,
2013-09-12 04:33:00,62.2,59.8,29.97,WSW,241,1.0,0.0,92,0.00,,,0.00,WeatherTracker,2013-09-12 11:33:00,
2013-09-12 04:38:00,62.2,59.8,29.96,WSW,242,0.0,0.0,92,0.00,,,0.00,WeatherTracker,2013-09-12 11:38:00,
2013-09-12 04:43:00,62.1,59.7,29.97,WSW,242,0.0,0.0,92,0.00,,,0.00,WeatherTracker,2013-09-12 11:43:00,
2013-09-12 04:48:00,62.1,59.7,29.96,WSW,242,0.0,0.0,92,0.00,,,0.00,WeatherTracker,2013-09-12 11:48:00,
2013-09-12 04:53:00,62.1,59.7,29.97,WSW,242,2.0,0.0,92,0.00,,,0.00,WeatherTracker,2013-09-12 11:53:00,
2013-09-12 04:58:00,62.1,59.7,29.97,NW,306,0.0,0.0,92,0.00,,,0.00,WeatherTracker,2013-09-12 11:58:00,
2013-09-12 05:03:00,62.0,59.6,29.96,NW,306,0.0,0.0,92,0.00,,,0.00,WeatherTracker,2013-09-12 12:03:00,
2013-09-12 05:09:00,62.0,60.0,29.96,NW,306,0.0,0.0,93,0.00,,,0.00,WeatherTracker,2013-09-12 12:09:00,
2013-09-12 05:14:00,62.0,60.0,29.96,WSW,257,2.0,0.0,93,0.00,,,0.00,WeatherTracker,2013-09-12 12:14:00,
2013-09-12 05:19:00,61.9,59.9,29.96,WSW,256,0.0,0.0,93,0.00,,,0.00,WeatherTracker,2013-09-12 12:19:00,
2013-09-12 05:24:00,61.9,59.9,29.96,WSW,256,0.0,0.0,93,0.00,,,0.00,WeatherTracker,2013-09-12 12:24:00,
2013-09-12 05:29:00,61.9,59.9,29.97,WSW,256,0.0,0.0,93,0.00,,,0.00,WeatherTracker,2013-09-12 12:29:00,
2013-09-12 05:34:00,61.8,59.8,29.97,WSW,256,0.0,0.0,93,0.00,,,0.00,WeatherTracker,2013-09-12 12:34:00,
2013-09-12 05:39:00,61.8,59.8,29.97,WSW,256,1.0,0.0,93,0.00,,,0.00,WeatherTracker,2013-09-12 12:39:00,
2013-09-12 05:44:00,61.8,59.8,29.97,WSW,256,1.0,0.0,93,0.00,,,0.00,WeatherTracker,2013-09-12 12:44:00,
2013-09-12 05:49:00,61.7,59.7,29.97,WSW,256,0.0,0.0,93,0.00,,,0.00,WeatherTracker,2013-09-12 12:49:00,
2013-09-12 05:54:00,61.6,59.6,29.97,WSW,256,0.0,0.0,93,0.00,,,0.00,WeatherTracker,2013-09-12 12:54:00,
2013-09-12 05:59:00,61.6,59.6,29.97,WSW,256,0.0,0.0,93,0.00,,,0.00,WeatherTracker,2013-09-12 12:59:00,
2013-09-12 06:04:00,61.6,59.6,29.97,WSW,256,0.0,0.0,93,0.00,,,0.00,WeatherTracker,2013-09-12 13:04:00,
2013-09-12 06:09:00,61.4,59.4,29.97,WSW,256,2.0,0.0,93,0.00,,,0.00,WeatherTracker,2013-09-12 13:09:00,
2013-09-12 06:14:00,61.2,59.2,29.97,WSW,256,0.0,0.0,93,0.00,,,0.00,WeatherTracker,2013-09-12 13:14:00,
2013-09-12 06:19:00,61.1,59.1,29.97,WSW,256,0.0,0.0,93,0.00,,,0.00,WeatherTracker,2013-09-12 13:19:00,
2013-09-12 06:24:00,61.0,59.0,29.97,WSW,256,0.0,0.0,93,0.00,,,0.00,WeatherTracker,2013-09-12 13:24:00,
2013-09-12 06:29:00,61.0,59.0,29.97,WSW,256,1.0,0.0,93,0.00,,,0.00,WeatherTracker,2013-09-12 13:29:00,
2013-09-12 06:34:00,61.0,59.0,29.97,WSW,256,0.0,0.0,93,0.00,,,0.00,WeatherTracker,2013-09-12 13:34:00,
2013-09-12 06:39:00,61.0,59.0,29.97,WSW,256,0.0,0.0,93,0.00,,,0.00,WeatherTracker,2013-09-12 13:39:00,
2013-09-12 06:44:00,61.1,59.1,29.97,WSW,256,0.0,0.0,93,0.00,,,0.00,WeatherTracker,2013-09-12 13:44:00,
2013-09-12 06:49:00,61.1,58.8,29.97,WSW,256,0.0,0.0,92,0.00,,,0.00,WeatherTracker,2013-09-12 13:49:00,
2013-09-12 06:54:00,61.0,59.0,29.98,WSW,256,0.0,0.0,93,0.00,,,0.00,WeatherTracker,2013-09-12 13:54:00,
2013-09-12 06:59:00,61.1,59.1,29.98,WSW,256,0.0,0.0,93,0.00,,,0.00,WeatherTracker,2013-09-12 13:59:00,
2013-09-12 07:04:00,61.1,58.8,29.98,WSW,256,0.0,0.0,92,0.00,,,0.00,WeatherTracker,2013-09-12 14:04:00,
2013-09-12 07:09:00,61.1,58.8,29.98,WSW,256,0.0,0.0,92,0.00,,,0.00,WeatherTracker,2013-09-12 14:09:00,
2013-09-12 07:14:00,61.1,58.8,29.98,WSW,256,0.0,0.0,92,0.00,,,0.00,WeatherTracker,2013-09-12 14:14:00,
2013-09-12 07:20:00,61.2,58.9,29.98,WSW,256,0.0,0.0,92,0.00,,,0.00,WeatherTracker,2013-09-12 14:20:00,
2013-09-12 07:25:00,61.2,58.9,29.98,WSW,256,0.0,0.0,92,0.00,,,0.00,WeatherTracker,2013-09-12 14:25:00,
2013-09-12 07:30:00,61.2,58.9,29.98,WSW,256,1.0,0.0,92,0.00,,,0.00,WeatherTracker,2013-09-12 14:30:00,
2013-09-12 07:35:00,61.3,59.0,29.98,WSW,256,0.0,0.0,92,0.00,,,0.00,WeatherTracker,2013-09-12 14:35:00,
2013-09-12 07:40:00,61.4,59.1,29.98,WSW,256,2.0,0.0,92,0.00,,,0.00,WeatherTracker,2013-09-12 14:40:00,
2013-09-12 07:45:00,61.4,59.1,29.98,WSW,256,0.0,0.0,92,0.00,,,0.00,WeatherTracker,2013-09-12 14:45:00,
2013-09-12 07:50:00,61.5,59.2,29.98,WSW,256,0.0,0.0,92,0.00,,,0.00,WeatherTracker,2013-09-12 14:50:00,
2013-09-12 07:55:00,61.5,59.2,29.98,WSW,256,0.0,0.0,92,0.00,,,0.00,WeatherTracker,2013-09-12 14:55:00,
2013-09-12 08:00:00,61.6,58.9,29.99,WSW,256,2.0,0.0,91,0.00,,,0.00,WeatherTracker,2013-09-12 15:00:00,
2013-09-12 08:05:00,61.8,59.4,29.99,WSW,256,2.0,0.0,92,0.00,,,0.00,WeatherTracker,2013-09-12 15:05:00,
2013-09-12 08:10:00,61.8,59.1,29.99,WSW,256,0.0,0.0,91,0.00,,,0.00,WeatherTracker,2013-09-12 15:10:00,
2013-09-12 08:15:00,61.9,59.2,29.99,WSW,256,0.0,0.0,91,0.00,,,0.00,WeatherTracker,2013-09-12 15:15:00,
2013-09-12 08:20:00,62.0,59.3,30.00,WSW,256,0.0,0.0,91,0.00,,,0.00,WeatherTracker,2013-09-12 15:20:00,
2013-09-12 08:25:00,62.0,59.3,30.00,WSW,256,0.0,0.0,91,0.00,,,0.00,WeatherTracker,2013-09-12 15:25:00,
2013-09-12 08:30:00,62.0,59.3,30.00,WSW,256,0.0,0.0,91,0.00,,,0.00,WeatherTracker,2013-09-12 15:30:00,
2013-09-12 08:35:00,62.1,59.4,30.00,WSW,256,0.0,0.0,91,0.00,,,0.00,WeatherTracker,2013-09-12 15:35:00,
2013-09-12 08:40:00,62.1,59.1,29.99,WSW,256,4.0,0.0,90,0.00,,,0.00,WeatherTracker,2013-09-12 15:40:00,
2013-09-12 08:45:00,62.2,59.2,29.99,WSW,251,2.0,0.0,90,0.00,,,0.00,WeatherTracker,2013-09-12 15:45:00,
2013-09-12 08:50:00,62.2,59.2,29.99,SW,228,1.0,0.0,90,0.00,,,0.00,WeatherTracker,2013-09-12 15:50:00,
2013-09-12 08:55:00,62.3,59.3,29.99,West,269,0.0,0.0,90,0.00,,,0.00,WeatherTracker,2013-09-12 15:55:00,
2013-09-12 09:01:00,62.3,59.0,29.99,West,267,0.0,0.0,89,0.00,,,0.00,WeatherTracker,2013-09-12 16:01:00,
2013-09-12 09:06:00,62.4,59.1,29.99,West,267,0.0,0.0,89,0.00,,,0.00,WeatherTracker,2013-09-12 16:06:00,
2013-09-12 09:11:00,62.6,59.3,30.00,West,263,1.0,0.0,89,0.00,,,0.00,WeatherTracker,2013-09-12 16:11:00,
2013-09-12 09:16:00,62.9,59.3,30.00,West,263,1.0,0.0,88,0.00,,,0.00,WeatherTracker,2013-09-12 16:16:00,
2013-09-12 09:21:00,63.1,59.2,30.00,West,263,0.0,0.0,87,0.00,,,0.00,WeatherTracker,2013-09-12 16:21:00,
2013-09-12 09:26:00,62.9,58.6,30.00,West,263,0.0,0.0,86,0.00,,,0.00,WeatherTracker,2013-09-12 16:26:00,
2013-09-12 09:31:00,63.2,59.3,30.00,West,263,1.0,0.0,87,0.00,,,0.00,WeatherTracker,2013-09-12 16:31:00,
2013-09-12 09:36:00,63.3,59.0,30.00,West,263,0.0,0.0,86,0.00,,,0.00,WeatherTracker,2013-09-12 16:36:00,
2013-09-12 09:41:00,63.4,59.5,30.00,West,263,1.0,0.0,87,0.00,,,0.00,WeatherTracker,2013-09-12 16:41:00,
2013-09-12 09:46:00,63.5,60.2,30.00,West,263,0.0,0.0,89,0.00,,,0.00,WeatherTracker,2013-09-12 16:46:00,
2013-09-12 09:51:00,63.4,59.1,30.00,West,263,0.0,0.0,86,0.00,,,0.00,WeatherTracker,2013-09-12 16:51:00,
2013-09-12 09:56:00,63.5,59.2,30.00,West,263,0.0,0.0,86,0.00,,,0.00,WeatherTracker,2013-09-12 16:56:00,
2013-09-12 10:01:00,63.8,59.2,30.00,West,263,1.0,0.0,85,0.00,,,0.00,WeatherTracker,2013-09-12 17:01:00,
2013-09-12 10:06:00,63.8,59.2,30.00,West,263,1.0,0.0,85,0.00,,,0.00,WeatherTracker,2013-09-12 17:06:00,
2013-09-12 10:11:00,63.7,59.4,30.00,West,263,0.0,0.0,86,0.00,,,0.00,WeatherTracker,2013-09-12 17:11:00,
2013-09-12 10:16:00,63.9,59.6,30.00,West,263,0.0,0.0,86,0.00,,,0.00,WeatherTracker,2013-09-12 17:16:00,
2013-09-12 10:21:00,64.0,59.4,30.00,West,263,0.0,0.0,85,0.00,,,0.00,WeatherTracker,2013-09-12 17:21:00,
2013-09-12 10:26:00,63.9,59.3,30.00,West,263,2.0,0.0,85,0.00,,,0.00,WeatherTracker,2013-09-12 17:26:00,
2013-09-12 10:31:00,64.4,60.1,30.00,West,263,0.0,0.0,86,0.00,,,0.00,WeatherTracker,2013-09-12 17:31:00,
2013-09-12 10:36:00,64.7,60.1,30.00,West,263,1.0,0.0,85,0.00,,,0.00,WeatherTracker,2013-09-12 17:36:00,
2013-09-12 10:41:00,64.5,59.9,30.00,West,263,3.0,0.0,85,0.00,,,0.00,WeatherTracker,2013-09-12 17:41:00,
2013-09-12 10:46:00,64.1,59.8,30.00,West,263,0.0,0.0,86,0.00,,,0.00,WeatherTracker,2013-09-12 17:46:00,
2013-09-12 10:51:00,64.0,59.7,30.00,WSW,241,0.0,0.0,86,0.00,,,0.00,WeatherTracker,2013-09-12 17:51:00,
2013-09-12 10:56:00,64.2,59.9,30.00,WSW,238,3.0,0.0,86,0.00,,,0.00,WeatherTracker,2013-09-12 17:56:00,
2013-09-12 11:02:00,64.4,59.8,30.00,SW,236,4.0,0.0,85,0.00,,,0.00,WeatherTracker,2013-09-12 18:02:00,
2013-09-12 11:07:00,64.6,59.7,30.00,WSW,237,1.0,0.0,84,0.00,,,0.00,WeatherTracker,2013-09-12 18:07:00,
2013-09-12 11:12:00,65.1,59.8,30.00,WSW,237,4.0,0.0,83,0.00,,,0.00,WeatherTracker,2013-09-12 18:12:00,
2013-09-12 11:17:00,65.2,59.9,30.00,West,279,1.0,0.0,83,0.00,,,0.00,WeatherTracker,2013-09-12 18:17:00,
2013-09-12 11:22:00,65.4,60.1,29.99,WSW,246,1.0,0.0,83,0.00,,,0.00,WeatherTracker,2013-09-12 18:22:00,
2013-09-12 11:27:00,65.4,59.8,30.00,WSW,258,3.0,0.0,82,0.00,,,0.00,WeatherTracker,2013-09-12 18:27:00,
2013-09-12 11:32:00,65.9,60.2,29.99,West,262,1.0,0.0,82,0.00,,,0.00,WeatherTracker,2013-09-12 18:32:00,
2013-09-12 11:37:00,66.4,60.4,29.99,West,261,0.0,0.0,81,0.00,,,0.00,WeatherTracker,2013-09-12 18:37:00,
2013-09-12 11:42:00,66.5,59.4,29.99,SW,227,4.0,0.0,78,0.00,,,0.00,WeatherTracker,2013-09-12 18:42:00,
2013-09-12 11:47:00,66.1,60.1,29.99,WSW,257,1.0,0.0,81,0.00,,,0.00,WeatherTracker,2013-09-12 18:47:00,
2013-09-12 11:52:00,66.6,60.6,29.99,West,279,0.0,0.0,81,0.00,,,0.00,WeatherTracker,2013-09-12 18:52:00,
2013-09-12 11:57:00,66.7,60.7,29.99,West,275,1.0,0.0,81,0.00,,,0.00,WeatherTracker,2013-09-12 18:57:00,
2013-09-12 12:02:00,66.5,60.5,29.99,SW,233,1.0,0.0,81,0.00,,,0.00,WeatherTracker,2013-09-12 19:02:00,
2013-09-12 12:07:00,66.5,60.1,29.99,WSW,252,0.0,0.0,80,0.00,,,0.00,WeatherTracker,2013-09-12 19:07:00,
2013-09-12 12:12:00,66.6,60.6,29.99,WSW,238,0.0,0.0,81,0.00,,,0.00,WeatherTracker,2013-09-12 19:12:00,
2013-09-12 12:17:00,66.7,60.3,29.99,WNW,286,0.0,0.0,80,0.00,,,0.00,WeatherTracker,2013-09-12 19:17:00,
2013-09-12 12:22:00,66.5,60.1,29.98,WNW,286,1.0,0.0,80,0.00,,,0.00,WeatherTracker,2013-09-12 19:22:00,
2013-09-12 12:28:00,66.8,60.4,29.98,West,276,0.0,0.0,80,0.00,,,0.00,WeatherTracker,2013-09-12 19:28:00,
2013-09-12 12:33:00,67.1,61.1,29.98,West,268,3.0,0.0,81,0.00,,,0.00,WeatherTracker,2013-09-12 19:33:00,
2013-09-12 12:38:00,67.3,60.9,29.98,WNW,283,2.0,0.0,80,0.00,,,0.00,WeatherTracker,2013-09-12 19:38:00,
2013-09-12 12:43:00,67.7,60.6,29.98,NW,304,2.0,0.0,78,0.00,,,0.00,WeatherTracker,2013-09-12 19:43:00,
2013-09-12 12:48:00,68.0,60.5,29.98,WNW,300,0.0,0.0,77,0.00,,,0.00,WeatherTracker,2013-09-12 19:48:00,
2013-09-12 12:53:00,68.7,60.4,29.98,West,268,3.0,0.0,75,0.00,,,0.00,WeatherTracker,2013-09-12 19:53:00,
2013-09-12 12:58:00,68.5,60.3,29.98,WNW,302,3.0,0.0,75,0.00,,,0.00,WeatherTracker,2013-09-12 19:58:00,
2013-09-12 13:03:00,68.7,60.8,29.97,West,279,1.0,0.0,76,0.00,,,0.00,WeatherTracker,2013-09-12 20:03:00,
2013-09-12 13:08:00,69.1,60.1,29.97,West,281,2.0,0.0,73,0.00,,,0.00,WeatherTracker,2013-09-12 20:08:00,
2013-09-12 13:13:00,69.5,60.8,29.97,West,269,1.0,0.0,74,0.00,,,0.00,WeatherTracker,2013-09-12 20:13:00,
2013-09-12 13:18:00,70.2,60.3,29.97,West,265,2.0,0.0,71,0.00,,,0.00,WeatherTracker,2013-09-12 20:18:00,
2013-09-12 13:23:00,69.2,60.6,29.97,WSW,243,2.0,0.0,74,0.00,,,0.00,WeatherTracker,2013-09-12 20:23:00,
2013-09-12 13:28:00,69.4,61.1,29.97,WSW,250,2.0,0.0,75,0.00,,,0.00,WeatherTracker,2013-09-12 20:28:00,
2013-09-12 13:33:00,70.0,61.3,29.97,West,271,2.0,0.0,74,0.00,,,0.00,WeatherTracker,2013-09-12 20:33:00,
2013-09-12 13:38:00,70.6,61.1,29.97,WNW,289,2.0,0.0,72,0.00,,,0.00,WeatherTracker,2013-09-12 20:38:00,
2013-09-12 13:43:00,69.7,61.0,29.96,WSW,254,2.0,0.0,74,0.00,,,0.00,WeatherTracker,2013-09-12 20:43:00,
2013-09-12 13:48:00,69.8,61.1,29.96,WNW,289,3.0,0.0,74,0.00,,,0.00,WeatherTracker,2013-09-12 20:48:00,
2013-09-12 13:53:00,69.6,60.9,29.96,NW,306,4.0,0.0,74,0.00,,,0.00,WeatherTracker,2013-09-12 20:53:00,
2013-09-12 13:58:00,69.4,61.1,29.96,WSW,250,5.0,0.0,75,0.00,,,0.00,WeatherTracker,2013-09-12 20:58:00,
2013-09-12 14:03:00,69.6,60.9,29.96,West,269,5.0,0.0,74,0.00,,,0.00,WeatherTracker,2013-09-12 21:03:00,
2013-09-12 14:08:00,69.4,61.1,29.96,WNW,283,2.0,0.0,75,0.00,,,0.00,WeatherTracker,2013-09-12 21:08:00,
2013-09-12 14:13:00,69.9,61.6,29.96,WNW,292,2.0,0.0,75,0.00,,,0.00,WeatherTracker,2013-09-12 21:13:00,
2013-09-12 14:18:00,69.6,61.3,29.95,West,279,3.0,0.0,75,0.00,,,0.00,WeatherTracker,2013-09-12 21:18:00,
2013-09-12 14:23:00,69.1,61.2,29.95,WSW,249,4.0,0.0,76,0.00,,,0.00,WeatherTracker,2013-09-12 21:23:00,
2013-09-12 14:28:00,69.7,61.4,29.95,WNW,292,3.0,0.0,75,0.00,,,0.00,WeatherTracker,2013-09-12 21:28:00,
2013-09-12 14:33:00,68.8,60.9,29.95,SW,223,4.0,0.0,76,0.00,,,0.00,WeatherTracker,2013-09-12 21:33:00,
2013-09-12 14:38:00,68.8,61.3,29.95,WNW,296,2.0,0.0,77,0.00,,,0.00,WeatherTracker,2013-09-12 21:38:00,
2013-09-12 14:44:00,68.9,61.0,29.95,West,279,4.0,0.0,76,0.00,,,0.00,WeatherTracker,2013-09-12 21:44:00,
2013-09-12 14:49:00,68.5,61.0,29.95,NNW,327,4.0,0.0,77,0.00,,,0.00,WeatherTracker,2013-09-12 21:49:00,
2013-09-12 14:54:00,68.7,61.2,29.94,WNW,296,1.0,0.0,77,0.00,,,0.00,WeatherTracker,2013-09-12 21:54:00,
2013-09-12 14:59:00,68.5,61.0,29.94,WNW,283,2.0,0.0,77,0.00,,,0.00,WeatherTracker,2013-09-12 21:59:00,
2013-09-12 15:04:00,68.7,60.8,29.94,NW,305,3.0,0.0,76,0.00,,,0.00,WeatherTracker,2013-09-12 22:04:00,
2013-09-12 15:09:00,69.1,60.8,29.94,WSW,242,5.0,0.0,75,0.00,,,0.00,WeatherTracker,2013-09-12 22:09:00,
2013-09-12 15:14:00,68.5,61.0,29.94,West,271,2.0,0.0,77,0.00,,,0.00,WeatherTracker,2013-09-12 22:14:00,
2013-09-12 15:19:00,68.3,60.8,29.94,West,271,6.0,0.0,77,0.00,,,0.00,WeatherTracker,2013-09-12 22:19:00,
2013-09-12 15:24:00,68.1,60.6,29.94,WNW,292,3.0,0.0,77,0.00,,,0.00,WeatherTracker,2013-09-12 22:24:00,
2013-09-12 15:29:00,68.4,61.3,29.94,WNW,284,6.0,0.0,78,0.00,,,0.00,WeatherTracker,2013-09-12 22:29:00,
2013-09-12 15:34:00,68.0,60.5,29.94,SW,226,1.0,0.0,77,0.00,,,0.00,WeatherTracker,2013-09-12 22:34:00,
2013-09-12 15:39:00,68.1,60.2,29.94,SW,227,5.0,0.0,76,0.00,,,0.00,WeatherTracker,2013-09-12 22:39:00,
2013-09-12 15:44:00,67.5,60.0,29.94,WNW,283,4.0,0.0,77,0.00,,,0.00,WeatherTracker,2013-09-12 22:44:00,
2013-09-12 15:49:00,67.5,60.4,29.93,NNW,339,4.0,0.0,78,0.00,,,0.00,WeatherTracker,2013-09-12 22:49:00,
2013-09-12 15:54:00,67.5,60.0,29.93,West,270,4.0,0.0,77,0.00,,,0.00,WeatherTracker,2013-09-12 22:54:00,
2013-09-12 15:59:00,67.6,60.8,29.93,West,269,4.0,0.0,79,0.00,,,0.00,WeatherTracker,2013-09-12 22:59:00,
2013-09-12 16:04:00,67.3,60.2,29.93,West,264,4.0,0.0,78,0.00,,,0.00,WeatherTracker,2013-09-12 23:04:00,
2013-09-12 16:09:00,66.4,60.0,29.93,West,260,9.0,0.0,80,0.00,,,0.00,WeatherTracker,2013-09-12 23:09:00,
2013-09-12 16:14:00,66.5,60.1,29.93,West,261,5.0,0.0,80,0.00,,,0.00,WeatherTracker,2013-09-12 23:14:00,
2013-09-12 16:19:00,67.1,60.7,29.93,WSW,249,1.0,0.0,80,0.00,,,0.00,WeatherTracker,2013-09-12 23:19:00,
2013-09-12 16:24:00,67.4,60.3,29.93,SW,226,9.0,0.0,78,0.00,,,0.00,WeatherTracker,2013-09-12 23:24:00,
2013-09-12 16:29:00,67.0,59.9,29.93,WSW,254,4.0,0.0,78,0.00,,,0.00,WeatherTracker,2013-09-12 23:29:00,
2013-09-12 16:34:00,66.9,60.2,29.92,WSW,247,6.0,0.0,79,0.00,,,0.00,WeatherTracker,2013-09-12 23:34:00,
2013-09-12 16:39:00,66.7,60.0,29.92,SW,219,5.0,0.0,79,0.00,,,0.00,WeatherTracker,2013-09-12 23:39:00,
2013-09-12 16:45:00,66.5,59.8,29.92,SW,234,6.0,0.0,79,0.00,,,0.00,WeatherTracker,2013-09-12 23:45:00,
2013-09-12 16:50:00,66.5,60.1,29.92,West,273,4.0,0.0,80,0.00,,,0.00,WeatherTracker,2013-09-12 23:50:00,
2013-09-12 16:55:00,66.7,60.0,29.92,SW,232,10.0,0.0,79,0.00,,,0.00,WeatherTracker,2013-09-12 23:55:00,
2013-09-12 17:00:00,66.8,60.1,29.91,WSW,238,4.0,0.0,79,0.00,,,0.00,WeatherTracker,2013-09-13 00:00:00,
2013-09-12 17:05:00,66.3,59.6,29.92,SW,236,5.0,0.0,79,0.00,,,0.00,WeatherTracker,2013-09-13 00:05:00,
2013-09-12 17:10:00,66.0,59.6,29.92,West,259,3.0,0.0,80,0.00,,,0.00,WeatherTracker,2013-09-13 00:10:00,
2013-09-12 17:15:00,65.6,59.6,29.92,West,279,5.0,0.0,81,0.00,,,0.00,WeatherTracker,2013-09-13 00:15:00,
2013-09-12 17:20:00,65.9,59.9,29.92,WSW,244,3.0,0.0,81,0.00,,,0.00,WeatherTracker,2013-09-13 00:20:00,
2013-09-12 17:25:00,65.7,59.7,29.92,West,267,3.0,0.0,81,0.00,,,0.00,WeatherTracker,2013-09-13 00:25:00,
2013-09-12 17:30:00,65.6,59.6,29.92,WSW,256,3.0,0.0,81,0.00,,,0.00,WeatherTracker,2013-09-13 00:30:00,
2013-09-12 17:35:00,65.3,59.7,29.92,WSW,254,4.0,0.0,82,0.00,,,0.00,WeatherTracker,2013-09-13 00:35:00,
2013-09-12 17:40:00,65.3,59.7,29.92,SW,233,5.0,0.0,82,0.00,,,0.00,WeatherTracker,2013-09-13 00:40:00,
2013-09-12 17:45:00,65.4,59.8,29.92,SSW,207,0.0,0.0,82,0.00,,,0.00,WeatherTracker,2013-09-13 00:45:00,
2013-09-12 17:50:00,65.8,60.1,29.92,SW,218,3.0,0.0,82,0.00,,,0.00,WeatherTracker,2013-09-13 00:50:00,
2013-09-12 17:55:00,65.8,59.8,29.92,WSW,254,2.0,0.0,81,0.00,,,0.00,WeatherTracker,2013-09-13 00:55:00,
2013-09-12 18:00:00,65.5,59.5,29.92,WSW,240,0.0,0.0,81,0.00,,,0.00,WeatherTracker,2013-09-13 01:00:00,
2013-09-12 18:05:00,65.3,59.3,29.92,SSW,211,3.0,0.0,81,0.00,,,0.00,WeatherTracker,2013-09-13 01:05:00,
2013-09-12 18:10:00,65.1,59.5,29.92,West,277,3.0,0.0,82,0.00,,,0.00,WeatherTracker,2013-09-13 01:10:00,
2013-09-12 18:15:00,64.9,59.3,29.92,WSW,248,2.0,0.0,82,0.00,,,0.00,WeatherTracker,2013-09-13 01:15:00,
2013-09-12 18:20:00,65.0,59.7,29.91,WSW,245,6.0,0.0,83,0.00,,,0.00,WeatherTracker,2013-09-13 01:20:00,
2013-09-12 18:25:00,65.1,59.8,29.92,WSW,247,3.0,0.0,83,0.00,,,0.00,WeatherTracker,2013-09-13 01:25:00,
2013-09-12 18:30:00,65.2,59.6,29.92,WSW,240,1.0,0.0,82,0.00,,,0.00,WeatherTracker,2013-09-13 01:30:00,
2013-09-12 18:35:00,65.0,59.4,29.92,SW,222,1.0,0.0,82,0.00,,,0.00,WeatherTracker,2013-09-13 01:35:00,
2013-09-12 18:40:00,64.9,59.6,29.92,ESE,118,6.0,0.0,83,0.00,,,0.00,WeatherTracker,2013-09-13 01:40:00,
2013-09-12 18:45:00,64.9,59.6,29.92,SE,132,0.0,0.0,83,0.00,,,0.00,WeatherTracker,2013-09-13 01:45:00,
2013-09-12 18:51:00,64.8,59.5,29.92,WSW,249,0.0,0.0,83,0.00,,,0.00,WeatherTracker,2013-09-13 01:51:00,
2013-09-12 18:56:00,64.6,59.7,29.92,South,190,3.0,0.0,84,0.00,,,0.00,WeatherTracker,2013-09-13 01:56:00,
2013-09-12 19:01:00,64.4,59.5,29.92,WSW,250,1.0,0.0,84,0.00,,,0.00,WeatherTracker,2013-09-13 02:01:00,
2013-09-12 19:06:00,64.1,59.5,29.92,SW,214,2.0,0.0,85,0.00,,,0.00,WeatherTracker,2013-09-13 02:06:00,
2013-09-12 19:11:00,63.9,59.3,29.92,WSW,240,0.0,0.0,85,0.00,,,0.00,WeatherTracker,2013-09-13 02:11:00,
2013-09-12 19:16:00,63.6,59.0,29.92,WSW,237,0.0,0.0,85,0.00,,,0.00,WeatherTracker,2013-09-13 02:16:00,
2013-09-12 19:21:00,63.4,58.8,29.92,SW,228,0.0,0.0,85,0.00,,,0.00,WeatherTracker,2013-09-13 02:21:00,
2013-09-12 19:26:00,63.0,58.7,29.92,SE,138,0.0,0.0,86,0.00,,,0.00,WeatherTracker,2013-09-13 02:26:00,
2013-09-12 19:31:00,62.8,58.9,29.92,East,99,2.0,0.0,87,0.00,,,0.00,WeatherTracker,2013-09-13 02:31:00,
2013-09-12 19:36:00,62.6,58.7,29.92,South,182,0.0,0.0,87,0.00,,,0.00,WeatherTracker,2013-09-13 02:36:00,
2013-09-12 19:41:00,62.5,58.6,29.92,South,183,1.0,0.0,87,0.00,,,0.00,WeatherTracker,2013-09-13 02:41:00,
2013-09-12 19:46:00,62.3,58.7,29.92,SSW,206,0.0,0.0,88,0.00,,,0.00,WeatherTracker,2013-09-13 02:46:00,
2013-09-12 19:51:00,62.2,58.6,29.92,SSW,192,0.0,0.0,88,0.00,,,0.00,WeatherTracker,2013-09-13 02:51:00,
2013-09-12 19:56:00,62.1,58.5,29.92,SW,219,1.0,0.0,88,0.00,,,0.00,WeatherTracker,2013-09-13 02:56:00,
2013-09-12 20:01:00,62.2,58.9,29.92,South,174,0.0,0.0,89,0.00,,,0.00,WeatherTracker,2013-09-13 03:01:00,
2013-09-12 20:06:00,62.3,59.0,29.92,SW,223,1.0,0.0,89,0.00,,,0.00,WeatherTracker,2013-09-13 03:06:00,
2013-09-12 20:11:00,62.4,59.1,29.92,SW,225,0.0,0.0,89,0.00,,,0.00,WeatherTracker,2013-09-13 03:11:00,
2013-09-12 20:16:00,62.2,58.9,29.92,WSW,239,1.0,0.0,89,0.00,,,0.00,WeatherTracker,2013-09-13 03:16:00,
2013-09-12 20:21:00,62.0,58.7,29.93,West,269,3.0,0.0,89,0.00,,,0.00,WeatherTracker,2013-09-13 03:21:00,
2013-09-12 20:26:00,61.9,58.6,29.93,WSW,249,3.0,0.0,89,0.00,,,0.00,WeatherTracker,2013-09-13 03:26:00,
2013-09-12 20:31:00,61.8,58.5,29.93,SW,221,0.0,0.0,89,0.00,,,0.00,WeatherTracker,2013-09-13 03:31:00,
2013-09-12 20:36:00,61.8,58.5,29.93,WSW,240,0.0,0.0,89,0.00,,,0.00,WeatherTracker,2013-09-13 03:36:00,
2013-09-12 20:41:00,61.7,58.4,29.93,SSW,197,0.0,0.0,89,0.00,,,0.00,WeatherTracker,2013-09-13 03:41:00,
2013-09-12 20:46:00,61.6,58.3,29.93,SE,143,2.0,0.0,89,0.00,,,0.00,WeatherTracker,2013-09-13 03:46:00,
2013-09-12 20:51:00,61.5,58.2,29.93,SSW,207,3.0,0.0,89,0.00,,,0.00,WeatherTracker,2013-09-13 03:51:00,
2013-09-12 20:56:00,61.6,58.6,29.93,South,169,0.0,0.0,90,0.00,,,0.00,WeatherTracker,2013-09-13 03:56:00,
2013-09-12 21:01:00,61.7,58.4,29.93,South,186,0.0,0.0,89,0.00,,,0.00,WeatherTracker,2013-09-13 04:01:00,
2013-09-12 21:02:00,61.7,58.7,29.93,SE,140,0.0,0.0,90,0.00,,,0.00,WeatherTracker,2013-09-13 04:02:00,
2013-09-12 21:07:00,61.7,58.7,29.93,SW,223,1.0,0.0,90,0.00,,,0.00,WeatherTracker,2013-09-13 04:07:00,
2013-09-12 21:12:00,61.8,58.8,29.94,SSW,202,0.0,0.0,90,0.00,,,0.00,WeatherTracker,2013-09-13 04:12:00,
2013-09-12 21:17:00,61.7,58.4,29.94,SSE,164,0.0,0.0,89,0.00,,,0.00,WeatherTracker,2013-09-13 04:17:00,
2013-09-12 21:22:00,61.6,58.3,29.94,WSW,238,0.0,0.0,89,0.00,,,0.00,WeatherTracker,2013-09-13 04:22:00,
2013-09-12 21:27:00,61.5,58.2,29.94,WSW,244,0.0,0.0,89,0.00,,,0.00,WeatherTracker,2013-09-13 04:27:00,
2013-09-12 21:32:00,61.5,58.2,29.94,South,175,1.0,0.0,89,0.00,,,0.00,WeatherTracker,2013-09-13 04:32:00,
2013-09-12 21:37:00,61.4,58.1,29.94,SSE,165,0.0,0.0,89,0.00,,,0.00,WeatherTracker,2013-09-13 04:37:00,
2013-09-12 21:42:00,61.5,58.2,29.94,South,190,3.0,0.0,89,0.00,,,0.00,WeatherTracker,2013-09-13 04:42:00,
2013-09-12 21:47:00,61.3,58.0,29.94,West,269,3.0,0.0,89,0.00,,,0.00,WeatherTracker,2013-09-13 04:47:00,
2013-09-12 21:52:00,61.2,57.9,29.94,SSW,206,1.0,0.0,89,0.00,,,0.00,WeatherTracker,2013-09-13 04:52:00,
2013-09-12 21:57:00,61.1,57.8,29.94,West,259,0.0,0.0,89,0.00,,,0.00,WeatherTracker,2013-09-13 04:57:00,
2013-09-12 22:02:00,61.1,57.8,29.94,WSW,242,0.0,0.0,89,0.00,,,0.00,WeatherTracker,2013-09-13 05:02:00,
2013-09-12 22:07:00,61.2,57.9,29.94,SSW,212,0.0,0.0,89,0.00,,,0.00,WeatherTracker,2013-09-13 05:07:00,
2013-09-12 22:12:00,61.1,57.8,29.95,WSW,251,2.0,0.0,89,0.00,,,0.00,WeatherTracker,2013-09-13 05:12:00,
2013-09-12 22:17:00,60.9,57.6,29.94,WSW,252,3.0,0.0,89,0.00,,,0.00,WeatherTracker,2013-09-13 05:17:00,
2013-09-12 22:22:00,60.8,57.5,29.94,WSW,254,3.0,0.0,89,0.00,,,0.00,WeatherTracker,2013-09-13 05:22:00,
2013-09-12 22:27:00,60.8,57.8,29.95,East,92,0.0,0.0,90,0.00,,,0.00,WeatherTracker,2013-09-13 05:27:00,
2013-09-12 22:32:00,60.9,57.9,29.94,SSE,157,3.0,0.0,90,0.00,,,0.00,WeatherTracker,2013-09-13 05:32:00,
2013-09-12 22:37:00,60.8,57.8,29.94,SW,219,0.0,0.0,90,0.00,,,0.00,WeatherTracker,2013-09-13 05:37:00,
2013-09-12 22:42:00,60.8,57.8,29.95,SSW,212,1.0,0.0,90,0.00,,,0.00,WeatherTracker,2013-09-13 05:42:00,
2013-09-12 22:47:00,60.7,57.7,29.94,WSW,256,2.0,0.0,90,0.00,,,0.00,WeatherTracker,2013-09-13 05:47:00,
2013-09-12 22:53:00,60.5,57.5,29.95,WSW,246,3.0,0.0,90,0.00,,,0.00,WeatherTracker,2013-09-13 05:53:00,
2013-09-12 22:58:00,60.3,57.0,29.95,WSW,256,0.0,0.0,89,0.00,,,0.00,WeatherTracker,2013-09-13 05:58:00,
2013-09-12 23:03:00,60.3,57.4,29.94,WSW,251,0.0,0.0,90,0.00,,,0.00,WeatherTracker,2013-09-13 06:03:00,
2013-09-12 23:08:00,60.3,57.4,29.94,WNW,294,0.0,0.0,90,0.00,,,0.00,WeatherTracker,2013-09-13 06:08:00,
2013-09-12 23:13:00,60.3,57.4,29.94,SSW,206,2.0,0.0,90,0.00,,,0.00,WeatherTracker,2013-09-13 06:13:00,
2013-09-12 23:18:00,60.3,57.4,29.94,SW,225,1.0,0.0,90,0.00,,,0.00,WeatherTracker,2013-09-13 06:18:00,
2013-09-12 23:23:00,60.3,57.4,29.94,South,184,0.0,0.0,90,0.00,,,0.00,WeatherTracker,2013-09-13 06:23:00,
2013-09-12 23:28:00,60.2,57.3,29.94,South,184,1.0,0.0,90,0.00,,,0.00,WeatherTracker,2013-09-13 06:28:00,
2013-09-12 23:33:00,60.1,56.8,29.94,SSW,198,0.0,0.0,89,0.00,,,0.00,WeatherTracker,2013-09-13 06:33:00,
2013-09-12 23:38:00,60.0,57.1,29.94,West,261,0.0,0.0,90,0.00,,,0.00,WeatherTracker,2013-09-13 06:38:00,
2013-09-12 23:43:00,60.0,57.1,29.94,SW,218,0.0,0.0,90,0.00,,,0.00,WeatherTracker,2013-09-13 06:43:00,
2013-09-12 23:48:00,60.0,57.1,29.94,SSW,208,0.0,0.0,90,0.00,,,0.00,WeatherTracker,2013-09-13 06:48:00,
2013-09-12 23:53:00,60.0,57.1,29.94,SW,223,3.0,0.0,90,0.00,,,0.00,WeatherTracker,2013-09-13 06:53:00,
2013-09-12 23:58:00,59.9,57.0,29.94,SSE,149,6.0,0.0,90,0.00,,,0.00,WeatherTracker,2013-09-13 06:58:00,